Regional Weather Roundup
Issued by NWS San Diego, CA

Home | Current Version | Previous Version | Text Only | Print | Product List | Glossary On
Versions: 1 2 3 4 5 6 7 8 9 10 11 12 13 14 15 16 17 18 19 20 21 22 23 24 25 26 27 28 29 30 31 32 33 34 35 36 37 38 39 40 41 42 43 44 45 46 47 48 49 50
000
ASUS46 KSGX 261611
RWRSGX

SAN DIEGO HOURLY WEATHER ROUNDUP
NATIONAL WEATHER SERVICE SAN DIEGO CA
900 AM PDT TUE SEP 26 2017

NOTE: "FAIR" INDICATES FEW OR NO CLOUDS BELOW 12,000 FEET WITH NO
SIGNIFICANT WEATHER AND/OR OBSTRUCTIONS TO VISIBILITY.

CAZ042-043-060-061-PZZ750-775-261700-

GREATER SAN DIEGO AREA

CITY           SKY/WX    TMP DP  RH WIND       PRES   REMARKS
SAN DIEGO AP   MOSUNNY   69  47  45 S6        29.84S
NATIONAL CITY    N/A     69  49  48 CALM      29.85S
CHULA VISTA      N/A     66  46  47 CALM      29.75R
IMPERIAL BEACH MOSUNNY   69  48  47 CALM      29.84R
BROWN FIELD    SUNNY     72  30  21 SE7       29.83S
MIRAMAR MCAS   MOSUNNY   77  32  19 SE7       29.83S
MONTGOMERY FLD SUNNY     72  31  22 SE6       29.84R
GILLESPIE FLD  SUNNY     63  34  34 CALM      29.84S

$$

NORTH SAN DIEGO COUNTY

CITY           SKY/WX    TMP DP  RH WIND       PRES   REMARKS
CAMP PENDLETON MOSUNNY   62  36  37 CALM      29.83R
OCEANSIDE AP   SUNNY     64  40  41 CALM      29.82R
OCEANSIDE HBR    N/A     65  43  44 N2        29.85R
VISTA            N/A     65  46  50 CALM      29.80R
CARLSBAD       SUNNY     71  42  35 SE3       29.82R
DEL MAR          N/A     67  45  45 CALM      29.84S
LA JOLLA SCRIP   N/A     69  49  48 E3        29.82S
FALLBROOK        N/A     70  36  29 CALM      29.85R
ESCONDIDO        N/A     68  43  40 CALM      29.84S
SAN MARCOS       N/A     70  37  30 E1        29.84S
POWAY            N/A     66  38  35 CALM      29.85R

$$

EAST SAN DIEGO COUNTY

CITY           SKY/WX    TMP DP  RH WIND       PRES   REMARKS
RAMONA         SUNNY     71  29  21 CALM      29.86R
SANTEE LAKES     N/A     63  40  41 CALM      29.82S
LA MESA          N/A     68  36  30 CALM      29.76R
JAMUL            N/A     71  36  28 CALM      29.83S
DESCANSO N       N/A     69  30  23 E1        29.79S
CAMPO            N/A     68  25  19 CALM      29.86F

$$

ORANGE COUNTY AND THE LOS ANGELES BASIN

CITY           SKY/WX    TMP DP  RH WIND       PRES   REMARKS
JOHN WAYNE AP  MOSUNNY   68  43  40 CALM      29.82R
LAGUNA BEACH     N/A     60  48  63 CALM      29.77R
LAKE FOREST FR   N/A     68  32  26 CALM      29.70R
HUNTINGTON BCH   N/A     73  55  53 CALM      29.83R
LOS ALAMITOS   SUNNY     69  44  40 NE3       29.82R
FULLERTON      MOSUNNY   71  38  29 E5        29.81R
LONG BEACH     SUNNY     69  47  45 E3        29.82R
L.A. AP        MOSUNNY   69  56  62 SE6       29.82R
L.A. DOWNTOWN  SUNNY     72  35  25 E5        29.81S

$$

THE INLAND EMPIRE

CITY           SKY/WX    TMP DP  RH WIND       PRES   REMARKS
CHINO          MOSUNNY   69  36  29 CALM      29.85R
ONTARIO        MOSUNNY   68  33  27 VRB3      29.83S
SAN BERNARDINO MOSUNNY   72  28  20 CALM      29.85R
RIVERSIDE AP   SUNNY     68  39  34 S3        29.83S
MORENO VALLEY    N/A     73  37  27 NW1       27.98R
MARCH ARB      SUNNY     65  32  29 S5        29.86S
HORSETHIEF CYN   N/A     68  34  28 CALM      29.83R
PERRIS           N/A     61  42  48 S1          N/A
HEMET EAST       N/A     70  28  21 CALM      29.87S
FRENCH VALLEY  FAIR      66  32  28 CALM      29.87R
TEMECULA         N/A     56  40  56 CALM      29.92S

$$

SAN BERNARDINO AND RIVERSIDE COUNTY MOUNTAINS

CITY           SKY/WX    TMP DP  RH WIND       PRES   REMARKS
BIG BEAR AP    SUNNY     46  21  36 E3        30.08R
ANGELUS OAKS     N/A     54  29  37 CALM      29.75S
PINE COVE        N/A     55  25  31 CALM      29.86R

$$

SOUTHERN DESERT INCLUDING THE COACHELLA VALLEY

CITY           SKY/WX    TMP DP  RH WIND       PRES   REMARKS
PALM SPRINGS   SUNNY     77  33  20 N5        29.82S
THOUSAND PALMS   N/A     75  29  18 N2        29.77S
PALM DESERT      N/A     73  36  25 CALM        N/A
THERMAL        MOSUNNY   75  35  23 N5        29.76S
BLYTHE         SUNNY     71  29  21 E3        29.81R
IMPERIAL AP    MOSUNNY   76  37  24 CALM      29.78R
EL CENTRO NAS  MOSUNNY   76  26  15 W7        29.80R
YUMA AZ        MOSUNNY   73  34  23 CALM      29.80R
MEXICALI       PTSUNNY   75  21  13 NW6       29.79R

$$

UPPER DESERT

CITY           SKY/WX    TMP DP  RH WIND       PRES   REMARKS
VICTORVILLE AP SUNNY     63  23  22 CALM      29.97R
HESPERIA         N/A     64  30  27 CALM      30.02S
PALMDALE       SUNNY     61  31  32 CALM      29.96R
LANCASTER      SUNNY     60  29  30 CALM      29.96R
EDWARDS AFB    MOSUNNY   57  27  31 S3        29.94R
DAGGETT        SUNNY     66  26  22 W8        29.93R
29 PALMS N     MOSUNNY   70  21  15 W12       29.96R
NEEDLES        PTSUNNY   75  34  22 N17       29.84S

$$

REGIONAL REPORTS

CITY           SKY/WX    TMP DP  RH WIND       PRES   REMARKS
SANTA BARBARA  SUNNY     68  53  58 E3        29.81R
SANDBERG       SUNNY     67  24  19 E23G30    30.01R
LAS VEGAS NV   MOSUNNY   69  30  23 N14       29.94R
PHOENIX AZ     PTSUNNY   71  26  18 E8        29.82R
TIJUANA        MOSUNNY   70  28  21 CALM      29.86R

$$

OFFSHORE ISLANDS

CITY           SKY/WX    TMP DP  RH WIND       PRES   REMARKS
CATALINA ARPT  SUNNY     77  33  20 CALM      29.86R
SAN CLEMENTE I PTSUNNY   68  61  78 S8        29.83R
SAN NICOLAS IS MOSUNNY   73  50  44 CALM      29.81S

$$

MARINE AND OFFSHORE BUOY REPORTS

STATION/POSITION SKY/WX   TEMP    WIND        PRES    VSBY  SWELL
                          AIR SEA DIR/SP/G                  HT/PER/DIR
                          (F)     (DEG/KT/KT) (MB)    (MI)  (FT/S/D)
TANNER BANKS               65 67  280/ 10/ 12 1009.6R         5/310/ 9
S CLEMENTE BASIN           68 70  280/  6/  8 1009.7R         2/170/12
SAN NICOLAS IS.               64                N/A           2/300/11
SO. S. ROSA ISLA           61 60  250/  6/  8 1009.0R         5/300/ 8
W. S. BARBARA CH           61 59   CALM  /  2 1008.8
M. S. BARBARA CH           64 62   80/  2/  4 1010.0R         2/240/ 7
S. MONICA BASIN               67   80/  4/  6 1009.1
S PEDRO CHANNEL               68                N/A           2/170/13
CMP PENDLETON NS              67                N/A           2/200/13
OCEANSIDE OFFSHR              68                N/A           2/190/13
TORREY PINES OTR              68                N/A           2/190/12
SAN DIEGO BAY                 72              1010.5R
POINT LOMA SOUTH              71                N/A           2/180/13

$$




USA.gov is the U.S. government's official web portal to all federal, state and local government web resources and services.